SJV911 WIBB-WIII

Flight info

Callsign SJV911
Flight time N/A
Altitude 37000
Route ISROR T5 BUNIK
Aircraft A320/M-SDE3FGHIRWY/LB1

Departure

Time 2026-04-29 07:45
Airport Sultan Syarif Kasim II International Airport / Roesmin Nurjadin AFB (WIBB)

Arrival

Time N/A
Airport Soekarno-Hatta International Airport (WIII)
Time Latitude Longitude Altitude Speed Heading
2026-04-29 07:22 0.46557 101.44684 111 ft 0 kts 91°
2026-04-29 07:34 0.46557 101.44671 111 ft 2 kts 91°
2026-04-29 07:34 0.46558 101.44656 111 ft 2 kts 91°
2026-04-29 07:34 0.46558 101.44641 111 ft 2 kts 91°
2026-04-29 07:34 0.46559 101.44626 111 ft 2 kts 91°
2026-04-29 07:35 0.46559 101.44616 111 ft 2 kts 90°
2026-04-29 07:35 0.46556 101.44604 111 ft 1 kts 52°
2026-04-29 07:35 0.46545 101.44595 111 ft 1 kts 24°
2026-04-29 07:35 0.46537 101.44592 111 ft 1 kts
2026-04-29 07:36 0.46530 101.44593 111 ft 0 kts
2026-04-29 07:40 0.46537 101.44593 111 ft 3 kts
2026-04-29 07:40 0.46591 101.44595 111 ft 10 kts
2026-04-29 07:40 0.46632 101.44562 111 ft 10 kts 273°
2026-04-29 07:41 0.46636 101.44488 111 ft 9 kts 287°
2026-04-29 07:41 0.46693 101.44467 111 ft 10 kts
2026-04-29 07:41 0.46768 101.44470 111 ft 11 kts
2026-04-29 07:41 0.46842 101.44472 111 ft 10 kts
2026-04-29 07:42 0.46912 101.44473 111 ft 9 kts
2026-04-29 07:42 0.46977 101.44477 111 ft 10 kts
2026-04-29 07:42 0.47050 101.44500 111 ft 10 kts 20°
2026-04-29 07:42 0.47077 101.44482 111 ft 4 kts 218°
2026-04-29 07:43 0.47037 101.44477 111 ft 3 kts 182°
2026-04-29 07:43 0.47036 101.44477 111 ft 0 kts 182°
2026-04-29 07:44 0.46873 101.44473 111 ft 61 kts 182°
2026-04-29 07:44 0.46193 101.44455 111 ft 132 kts 181°
2026-04-29 07:44 0.45171 101.44422 508 ft 153 kts 183°
2026-04-29 07:45 0.44106 101.44379 1148 ft 159 kts 183°
2026-04-29 07:45 0.43011 101.44349 1906 ft 160 kts 181°
2026-04-29 07:45 0.41931 101.44619 2422 ft 175 kts 145°
2026-04-29 07:45 0.41091 101.45569 2880 ft 194 kts 128°
2026-04-29 07:46 0.40293 101.46725 3347 ft 212 kts 128°
2026-04-29 07:46 0.39381 101.47977 3805 ft 232 kts 130°
2026-04-29 07:46 0.38348 101.49293 4411 ft 248 kts 131°
2026-04-29 07:46 0.37219 101.50659 4964 ft 267 kts 133°
2026-04-29 07:47 0.35987 101.52105 5674 ft 278 kts 133°
2026-04-29 07:47 0.34736 101.53554 6561 ft 283 kts 133°
2026-04-29 07:47 0.33441 101.55042 7461 ft 287 kts 134°
2026-04-29 07:47 0.32123 101.56549 8340 ft 292 kts 134°
2026-04-29 07:48 0.30783 101.58078 9208 ft 297 kts 134°
2026-04-29 07:48 0.29433 101.59615 10055 ft 302 kts 134°
2026-04-29 07:48 0.28022 101.61219 10757 ft 312 kts 134°
2026-04-29 07:48 0.26546 101.62896 11217 ft 331 kts 133°
2026-04-29 07:49 0.26037 101.63474 11362 ft 337 kts 133°
2026-04-29 07:49 0.25523 101.64058 11518 ft 343 kts 133°
2026-04-29 07:49 0.21786 101.68328 13301 ft 356 kts 133°
2026-04-29 07:49 0.20165 101.70185 14152 ft 359 kts 133°
2026-04-29 07:50 0.18516 101.72065 14990 ft 361 kts 134°
2026-04-29 07:50 0.16867 101.73942 15804 ft 364 kts 134°
2026-04-29 07:50 0.15203 101.75833 16602 ft 366 kts 134°
2026-04-29 07:50 0.13509 101.77758 17384 ft 368 kts 134°
2026-04-29 07:51 0.11829 101.79668 18130 ft 371 kts 133°
2026-04-29 07:51 0.10139 101.81608 18856 ft 373 kts 133°
2026-04-29 07:51 0.09011 101.82909 19326 ft 375 kts 133°
2026-04-29 07:52 0.05014 101.87522 20931 ft 381 kts 133°
2026-04-29 07:52 0.03263 101.89542 21603 ft 384 kts 133°
2026-04-29 07:52 0.01515 101.91557 22254 ft 387 kts 133°
2026-04-29 07:52 -0.00250 101.93593 22893 ft 390 kts 132°
2026-04-29 07:53 -0.02015 101.95628 23507 ft 392 kts 132°
2026-04-29 07:53 -0.03798 101.97685 24105 ft 395 kts 132°
2026-04-29 07:53 -0.05608 101.99773 24686 ft 398 kts 132°